Effective Sunday, March 17, 2024, the National Weather Service National Data Buoy Center will discontinue its Dial-A-Buoy Interactive Voice Response system. For more information, see Service Change Notice 24-06 (PDF).

Station MACM4 - 9075080 - Mackinaw City, MI Image indicating link to RSS feed of recent meteorological observations for station MACM4


Conditions at MACM4 as of
(11:54 pm EST on 02/29/2024)
0454 GMT on 03/01/2024:
     

Click on the graph icon in the table below to see a time series plot of the last five days of that observation.

5-day plot - Wind Direction Wind Direction (WDIR):SSE ( 150 deg true )
5-day plot - Wind Speed Wind Speed (WSPD): 7.0 kts
5-day plot - Wind Gust Wind Gust (GST): 8.9 kts
5-day plot - Atmospheric Pressure Atmospheric Pressure (PRES):30.22 in
5-day plot - Air Temperature Air Temperature (ATMP): 23.2 °F
5-day plot - Water Temperature Water Temperature (WTMP): 32.4 °F
5-day plot - Dew Point Dew Point (DEWP): 15.8 °F
5-day plot - Ice Accretion Ice Accretion (ICE): 0.08 in per hour
5-day plot - Wind Chill Wind Chill (CHILL): 14.0 °F
5-day plot - Wind Speed at 10 Meters Wind Speed at 10 meters (WSPD10M): 7.8 kts
5-day plot - Wind Speed at 20 Meters Wind Speed at 20 meters (WSPD20M): 7.8 kts
5-day plot -  Wind Speed, Wind Gust and Atmospheric Pressure Combined plot of Wind Speed, Gust, and Air Pressure
NOS Water Level Observation Network Water Level
Previous observations
TIME
(EST)
5-day plot - Wind Direction
WDIR
 
5-day plot - Wind Speed
WSPD
kts
5-day plot - Wind Gust
GST
kts
5-day plot - Wave Height
WVHT
ft
5-day plot - Dominant Wave Period
DPD
sec
5-day plot - Average Wave Period
APD
sec
5-day plot - Mean Wave Direction
MWD
 
5-day plot - Atmospheric Pressure
PRES
in
5-day plot - Pressure Tendency
PTDY
in
5-day plot - Air Temperature
ATMP
°F
5-day plot - Water Temperature
WTMP
°F
5-day plot - Dew Point
DEWP
°F
5-day plot - Salinity
SAL
psu
5-day plot - Visibility
VIS
nmi
5-day plot - Tide (above MLLW)
TIDE
ft
2024-02-29 11:48 pmSSE 7.0 8.9----30.23- 23.2 32.4 15.8---
2024-02-29 11:42 pmSSE 5.1 8.9----30.23- 23.2 32.4 16.0---
2024-02-29 11:36 pmSSE 6.0 8.9----30.23- 23.0 32.5 16.0---
2024-02-29 11:30 pmSSE 8.0 9.9----30.23- 22.8 32.4 15.8---
2024-02-29 11:24 pmSSE 7.0 8.0----30.24- 22.8 32.4 15.8---
2024-02-29 11:18 pmSSE 7.0 9.9----30.24- 22.8 32.4 16.0---
2024-02-29 11:12 pmSSE 7.0 9.9----30.24- 22.8 32.4 16.2---
2024-02-29 11:06 pmSSE 6.0 8.9----30.24- 23.0 32.4 16.5---
2024-02-29 11:00 pmSSE 7.0 8.9----30.24-0.04 22.8 32.4 16.3---
2024-02-29 10:54 pmSSE 6.0 8.9----30.24- 23.0 32.4 16.7---
2024-02-29 10:48 pm SE 6.0 8.0----30.25- 22.8 32.4 16.2---
2024-02-29 10:42 pm SE 6.0 8.9----30.25- 22.6 32.4 15.6---
2024-02-29 10:36 pm SE 6.0 8.0----30.25- 22.6 32.4 16.2---
2024-02-29 10:30 pm SE 6.0 8.0----30.26- 22.6 32.5 16.2---
2024-02-29 10:24 pm SE 6.0 7.0----30.26- 22.5 32.4 15.8---
2024-02-29 10:18 pm SE 6.0 8.0----30.26- 22.8 32.4 16.5---
2024-02-29 10:12 pm SE 5.1 7.0----30.27- 22.8 32.4 16.3---
2024-02-29 10:06 pmSSE 5.1 7.0----30.27- 22.6 32.4 16.3---
2024-02-29 10:00 pmSSE 6.0 7.0----30.27+0.00 22.8 32.5 16.7---
2024-02-29 09:54 pmSSE 4.1 7.0----30.27- 22.6 32.5 16.5---
2024-02-29 09:48 pmSSE 6.0 7.0----30.27- 22.5 32.5 16.3---
2024-02-29 09:42 pmSSE 5.1 5.1----30.27- 22.1 32.5 15.6---
2024-02-29 09:36 pm S 5.1 5.1----30.27- 22.1 32.5 15.1---
2024-02-29 09:30 pmSSE 2.9 5.1----30.27- 22.3 32.5 15.8---
2024-02-29 09:24 pmSSE 4.1 6.0----30.28- 21.7 32.5 15.1---
2024-02-29 09:18 pm S 5.1 6.0----30.27- 21.9 32.5 15.8---
2024-02-29 09:12 pm S 5.1 6.0----30.28- 21.6 32.5 14.4---
2024-02-29 09:06 pm S 5.1 6.0----30.28- 21.9 32.5 15.1---
2024-02-29 09:00 pmSSE 5.1 6.0----30.28+0.00 21.7 32.7 15.8---
2024-02-29 08:54 pmSSE 4.1 5.1----30.28- 21.6 32.7 15.6---
2024-02-29 08:48 pm S 5.1 5.1----30.28- 21.6 32.7 15.4---
2024-02-29 08:42 pm S 5.1 5.1----30.28- 21.6 32.7 14.9---
2024-02-29 08:36 pmSSE 5.1 6.0----30.28- 21.7 32.7 14.7---
2024-02-29 08:30 pmSSE 5.1 5.1----30.28- 21.6 32.7 14.9---
2024-02-29 08:24 pmSSE 4.1 5.1----30.28- 21.4 32.7 14.7---
2024-02-29 08:18 pm S 4.1 5.1----30.28- 21.2 32.7 14.2---
2024-02-29 08:12 pm S 4.1 5.1----30.28- 21.4 32.7 14.7---
2024-02-29 08:06 pm S 2.9 4.1----30.28- 21.2 32.7 14.7---
2024-02-29 08:00 pmSSW 2.9 4.1----30.28+0.00 21.0 32.9 13.5---
2024-02-29 07:54 pmSSW 1.9 2.9----30.28- 21.0 32.9 13.3---
2024-02-29 07:48 pm SW 1.9 4.1----30.28- 20.8 32.9 13.1---
2024-02-29 07:42 pm SW 1.9 4.1----30.28- 20.8 32.9 13.1---
2024-02-29 07:36 pmWSW 1.9 1.9----30.28- 20.7 32.9 12.9---
2024-02-29 07:30 pmWSW 1.0 1.9----30.29- 20.8 32.7 13.3---
2024-02-29 07:24 pm W 1.9 2.9----30.28- 20.7 32.7 13.3---
2024-02-29 07:18 pm W 1.9 2.9----30.28- 20.5 32.7 12.9---
2024-02-29 07:12 pm W 1.0 2.9----30.28- 20.7 32.7 13.5---
2024-02-29 07:06 pm SW 2.9 2.9----30.27- 20.5 32.7 13.3---
2024-02-29 07:00 pmWSW 1.9 2.9----30.27-0.03 20.3 32.9 13.1---
2024-02-29 06:54 pm W 1.9 1.9----30.27- 20.3 32.9 12.7---
2024-02-29 06:48 pm W 2.9 4.1----30.27-------
2024-02-29 06:42 pm W 2.9 4.1----30.27- 20.3 32.9 12.7---
2024-02-29 06:36 pm W 4.1 5.1----30.27- 20.1 32.9 12.2---
2024-02-29 05:48 pm W 6.0 7.0----30.28- 20.3 33.1 10.9---
2024-02-29 05:42 pm W 6.0 9.9----30.28- 20.3 33.1 11.1---
2024-02-29 05:36 pm W 5.1 8.0----30.28- 20.5 33.1 10.9---
2024-02-29 05:30 pm W 5.1 8.9----30.28- 20.5 33.1 10.6---
2024-02-29 05:24 pm W 6.0 9.9----30.29- 20.5 33.1 10.4---
2024-02-29 05:18 pm W 7.0 11.1----30.29- 20.3 33.1 9.7---
2024-02-29 05:12 pm W 6.0 8.0----30.28- 20.5 33.1 9.9---
2024-02-29 05:06 pmWSW 7.0 9.9----30.28- 20.3 33.1 9.7---
2024-02-29 05:00 pmWSW 6.0 9.9----30.28-0.03 20.3 33.1 9.9---
2024-02-29 04:54 pm W 8.9 12.0----30.29- 19.9 33.1 9.1---
2024-02-29 04:48 pm W 8.9 12.0----30.29- 20.1 33.1 9.0---
2024-02-29 04:42 pm W 9.9 13.0----30.29- 19.9 33.1 8.6---
2024-02-29 04:36 pm W 7.0 11.1----30.29- 20.1 33.3 9.0---
2024-02-29 04:30 pmWNW 8.0 14.0----30.29- 20.1 33.3 9.1---
2024-02-29 04:24 pm W 12.0 15.9----30.29- 19.8 33.3 8.8---
2024-02-29 04:18 pmWSW 9.9 15.0----30.29- 19.9 33.1 9.5---
2024-02-29 04:12 pm W 9.9 14.0----30.30- 19.9 32.5 8.8---
2024-02-29 04:06 pm W 9.9 15.0----30.30- 19.8 32.4 8.8---
2024-02-29 04:00 pm W 8.0 15.9----30.30-0.03 19.9 32.4 8.6---
2024-02-29 03:54 pm W 8.9 12.0----30.30- 19.8 32.4 8.4---
2024-02-29 03:48 pm W 11.1 15.9----30.30- 19.6 32.4 8.4---
2024-02-29 03:42 pm W 12.0 17.1----30.30- 19.6 32.2 7.7---
2024-02-29 03:36 pm W 7.0 14.0----30.30- 20.1 32.2 8.1---
2024-02-29 03:30 pm W 11.1 15.0----30.31- 19.8 32.2 7.7---
2024-02-29 03:24 pm W 12.0 15.9----30.31- 19.4 32.2 7.7---
2024-02-29 03:18 pm W 9.9 15.0----30.31- 19.4 32.2 7.7---
2024-02-29 03:12 pm W 8.9 17.1----30.31- 19.2 32.2 7.7---
2024-02-29 03:06 pm W 8.9 13.0----30.31- 19.6 32.2 7.7---
2024-02-29 03:00 pmWNW 9.9 18.1----30.31-0.02 19.2 32.2 7.3---
2024-02-29 02:54 pm W 15.0 18.1----30.31- 18.9 32.2 6.6---
2024-02-29 02:48 pmWNW 9.9 15.0----30.31- 19.2 32.2 7.9---
2024-02-29 02:42 pm W 12.0 15.9----30.31- 19.2 32.0 6.8---
2024-02-29 02:36 pm W 11.1 15.9----30.31- 18.9 32.0 6.1---
2024-02-29 02:30 pm W 12.0 15.9----30.31- 18.9 32.2 6.3---
2024-02-29 02:24 pm W 11.1 18.1----30.31- 19.4 32.2 6.6---
2024-02-29 02:18 pm W 13.0 17.1----30.31- 18.3 32.2 5.9---
2024-02-29 02:12 pmWNW 11.1 15.0----30.31- 18.7 32.2 5.5---
2024-02-29 02:06 pm W 9.9 17.1----30.31- 19.2 32.2 5.2---
2024-02-29 02:00 pm W 13.0 18.1----30.31-0.01 18.1 32.2 3.0---
2024-02-29 01:54 pm W 13.0 18.1----30.31- 18.3 32.2 3.4---
2024-02-29 01:48 pm W 11.1 14.0----30.32- 18.7 32.0 5.2---
2024-02-29 01:42 pm W 13.0 17.1----30.32- 18.3 32.2 5.7---
2024-02-29 01:36 pm W 13.0 18.1----30.32- 18.1 32.0 5.4---
2024-02-29 01:30 pm W 9.9 18.1----30.32- 18.7 32.2 5.4---
2024-02-29 01:24 pm W 12.0 20.0----30.32- 18.7 32.0 5.5---
2024-02-29 01:18 pm W 15.0 20.0----30.32- 18.3 32.2 5.0---
2024-02-29 01:12 pm W 13.0 20.0----30.32- 18.1 32.2 5.4---
2024-02-29 01:06 pm W 13.0 17.1----30.33- 18.1 32.2 5.2---
2024-02-29 01:00 pm W 14.0 19.0----30.33+0.02 18.0 32.2 5.0---
2024-02-29 12:54 pm W 13.0 20.0----30.33- 18.0 32.2 4.8---
2024-02-29 12:48 pm W 12.0 18.1----30.33- 18.1 32.2 4.5---
2024-02-29 12:42 pmWSW 15.0 21.0----30.33- 17.8 32.2 3.4---
2024-02-29 12:36 pm W 11.1 22.9----30.33- 18.7 32.2 3.7---
2024-02-29 12:30 pm W 15.0 19.0----30.33- 18.1 32.2 3.7---
2024-02-29 12:24 pm W 13.0 19.0----30.33- 17.6 32.2 3.6---
2024-02-29 12:12 pmWNW 12.0 20.0----30.33- 17.4 32.2 3.4---
2024-02-29 12:06 pm W 15.0 22.0----30.33- 17.4 32.0 2.5---
2024-02-29 12:00 pm W 8.9 20.0----30.33+0.04 18.9 32.2 4.6---
2024-02-29 11:54 am W 13.0 19.0----30.33- 17.4 32.0 3.0---
2024-02-29 11:48 am W 15.0 20.0----30.33- 17.6 32.2 3.0---
2024-02-29 11:42 am W 14.0 21.0----30.33- 17.8 32.2 2.1---
2024-02-29 11:36 am W 12.0 19.0----30.33- 18.1 32.2 3.7---
2024-02-29 11:30 amWNW 12.0 19.0----30.33- 17.2 32.2 3.4---
2024-02-29 11:24 amWNW 15.0 21.0----30.33- 16.5 32.0 2.1---
2024-02-29 11:18 amWNW 12.0 18.1----30.33- 16.7 32.0 2.5---
2024-02-29 11:12 am W 12.0 18.1----30.32- 17.1 32.2 3.2---
2024-02-29 11:06 amWNW 12.0 20.0----30.32- 16.7 32.2 3.0---
2024-02-29 11:00 amWNW 13.0 18.1----30.32+0.05 16.9 32.2 3.0---
2024-02-29 10:54 amWNW 11.1 15.9----30.32- 17.1 32.0 3.4---
2024-02-29 10:48 amWNW 12.0 18.1----30.32- 16.9 32.2 3.7---
2024-02-29 10:42 amWNW 13.0 17.1----30.32- 16.7 32.2 3.2---
2024-02-29 10:36 amWNW 13.0 19.0----30.32- 16.2 32.0 1.9---
2024-02-29 10:30 amWNW 12.0 17.1----30.32- 16.0 32.0 2.5---
2024-02-29 10:24 amWNW 11.1 15.9----30.32- 16.2 32.0 2.3---
2024-02-29 10:18 amWNW 13.0 18.1----30.32-- 32.0----
2024-02-29 10:12 amWNW 12.0 15.9----30.32- 16.2 32.0 2.5---
2024-02-29 10:06 amWNW 12.0 19.0----30.32- 16.2 32.0 3.0---
2024-02-29 10:00 am NW 13.0 18.1----30.31+0.07 16.3 32.2 2.7---
2024-02-29 09:54 amWNW 14.0 20.0----30.31- 16.3 32.2 1.6---
2024-02-29 09:48 amWNW 9.9 18.1----30.30- 16.0 32.0 3.0---
2024-02-29 09:42 am NW 13.0 19.0----30.30- 16.0 32.0 3.6---
2024-02-29 09:36 amWNW 13.0 18.1----30.30- 15.8 32.0 3.4---
2024-02-29 09:30 am NW 13.0 18.1----30.30- 15.6 32.0 3.4---
2024-02-29 09:24 am NW 14.0 20.0----30.30- 15.4 32.0 2.3---
2024-02-29 09:18 amWNW 12.0 17.1----30.30- 15.6 32.0 3.9---
2024-02-29 09:12 amWNW 9.9 19.0----30.30- 15.4 32.0 3.4---
2024-02-29 09:06 am NW 15.0 21.0----30.29- 15.4 32.0 3.2---
2024-02-29 09:00 amWNW 8.9 19.0----30.29+0.07 15.6 32.0 4.5---
2024-02-29 08:54 am NW 14.0 18.1----30.29- 15.3 32.0 3.6---
2024-02-29 08:48 amWNW 15.0 20.0----30.29- 15.3 32.0 2.3---
2024-02-29 08:42 amWNW 12.0 17.1----30.29- 15.4 32.0 5.4---
2024-02-29 08:36 amWNW 15.9 20.0----30.29- 15.3 32.0 4.8---
2024-02-29 08:30 amWNW 11.1 19.0----30.28- 15.3 32.0 4.3---
2024-02-29 08:24 am NW 11.1 17.1----30.28- 15.3 32.0 4.8---
2024-02-29 08:18 am NW 12.0 17.1----30.28- 15.1 32.0 3.9---
2024-02-29 08:12 amWNW 15.9 19.0----30.28- 15.1 32.0 4.1---
2024-02-29 08:06 am NW 12.0 18.1----30.28- 15.3 32.0 6.4---
2024-02-29 08:00 amWNW 13.0 18.1----30.27+0.08 15.1 32.0 5.2---
2024-02-29 07:54 am NW 13.0 20.0----30.27- 15.3 32.0 5.9---
2024-02-29 07:48 am NW 15.0 21.0----30.27- 15.3 32.0 4.5---
2024-02-29 07:42 amWNW 11.1 20.0----30.27- 15.3 32.0 5.5---
2024-02-29 07:36 am NW 14.0 20.0----30.26- 15.4 32.0 6.3---
2024-02-29 07:30 am NW 17.1 22.0----30.26- 15.1 32.0 4.5---
2024-02-29 07:24 am NW 13.0 21.0----30.25- 15.1 32.0 5.7---
2024-02-29 07:18 amWNW 15.0 21.0----30.25- 15.1 32.0 5.2---
2024-02-29 07:12 am NW 15.9 20.0----30.25- 15.1 32.0 5.4---
2024-02-29 07:06 am NW 15.0 20.0----30.25- 15.1 32.0 5.4---
2024-02-29 07:00 am NW 15.0 21.0----30.24+0.08 15.1 32.0 6.1---
2024-02-29 06:54 am NW 17.1 24.1----30.24- 14.9 32.0 5.2---
2024-02-29 06:42 am NW 18.1 26.0----30.24- 15.1 32.0 4.8---
2024-02-29 06:36 amWNW 17.1 22.9----30.24- 15.3 32.0 6.6---
2024-02-29 06:30 am NW 15.0 22.0----30.24- 15.3 32.0 6.3---
2024-02-29 06:24 am NW 18.1 24.1----30.23- 15.3 32.0 5.2---
2024-02-29 06:18 am NW 15.9 25.1----30.23- 15.3 32.0 5.4---
2024-02-29 06:12 am NW 17.1 24.1----30.22- 15.4 32.0 5.5---
2024-02-29 06:06 am NW 19.0 25.1----30.22- 15.4 32.0 6.1---
2024-02-29 06:00 am NW 15.0 28.0----30.22+0.07 15.4 32.0 6.3---
2024-02-29 05:54 am NW 19.0 24.1----30.22-- 32.0----
2024-02-29 05:48 am NW 19.0 26.0----30.21-------
2024-02-29 05:42 amWNW 17.1 24.1----30.21- 15.8 32.0 5.5---
2024-02-29 05:36 am NW 15.9 27.0----30.21- 16.0 32.0 6.3---
2024-02-29 05:30 amWNW 15.9 22.0----30.20- 16.0 32.0 7.5---
2024-02-29 05:24 amWNW 15.9 27.0----30.20- 15.8 32.0 6.4---
2024-02-29 05:18 am NW 15.9 22.0----30.20- 15.8 32.0 8.1---
2024-02-29 05:12 amWNW 18.1 24.1----30.20- 15.8 32.0 7.5---
2024-02-29 05:06 amWNW 18.1 25.1----30.20- 15.8 32.0 8.2---
2024-02-29 05:00 am NW 19.0 26.0----30.19+0.06 15.8 32.0 7.9---
2024-02-29 04:54 am NW 17.1 21.0----30.19- 16.2 32.0 7.9---
2024-02-29 04:48 amWNW 22.0 27.0----30.19- 16.0 32.0 7.2---
2024-02-29 04:42 amWNW 17.1 25.1----30.19- 15.8 32.0 7.2---
2024-02-29 04:36 amWNW 19.0 28.0----30.18- 16.0 32.0 6.4---
2024-02-29 04:30 amWNW 17.1 28.0----30.18- 15.8 32.0 6.1---
2024-02-29 04:18 amWNW 14.0 22.9----30.17- 16.0 32.0 7.5---
2024-02-29 04:12 amWNW 18.1 24.1----30.17- 15.8 32.0 7.7---
2024-02-29 04:06 amWNW 19.0 28.9----30.16- 16.2 32.0 7.5---
2024-02-29 04:00 amWNW 17.1 28.0----30.16+0.06 16.0 32.0 6.8---
2024-02-29 03:48 amWNW 15.9 22.9----30.16- 16.2 32.0 8.1---
2024-02-29 03:42 amWNW 18.1 27.0----30.16- 16.2 32.0 7.7---
2024-02-29 03:36 amWNW 19.0 27.0----30.16- 16.0 32.0 6.6---
2024-02-29 03:30 amWNW 18.1 26.0----30.15- 16.2 32.0 6.3---
2024-02-29 03:18 amWNW 19.0 24.1----30.15- 16.3 32.0 7.3---
2024-02-29 03:12 amWNW 19.0 25.1----30.15- 16.2 32.0 7.7---
2024-02-29 03:06 amWNW 19.0 26.0----30.15- 16.3 32.0 7.0---
2024-02-29 03:00 amWNW 17.1 28.0----30.15+0.06 16.3 32.0 8.4---
2024-02-29 02:48 amWNW 21.0 29.9----30.14- 16.2 32.0 8.4---
2024-02-29 02:42 amWNW 18.1 28.9----30.14- 16.2 32.0 8.1---
2024-02-29 02:36 amWNW 15.0 26.0----30.14- 16.2 32.0 9.3---
2024-02-29 02:30 amWNW 15.9 25.1----30.14- 16.2 32.0 9.5---
2024-02-29 02:24 amWNW 17.1 25.1----30.14- 16.0 32.0 7.7---
2024-02-29 02:18 amWNW 20.0 28.9----30.14- 16.0 32.0 7.7---
2024-02-29 02:12 amWNW 15.0 22.0----30.13- 16.2 32.0 8.6---
2024-02-29 02:06 am W 17.1 24.1----30.13- 15.8 32.0 7.9---
2024-02-29 02:00 amWNW 15.9 27.0----30.13+0.05 16.0 32.0 7.7---
2024-02-29 01:54 amWNW 19.0 25.1----30.13- 16.2 32.0 8.1---
2024-02-29 01:48 amWNW 19.0 24.1----30.12- 15.8 32.0 7.0---
2024-02-29 01:42 am W 18.1 26.0----30.12- 16.0 32.0 6.8---
2024-02-29 01:36 amWNW 17.1 24.1----30.12- 16.0 32.0 8.2---
2024-02-29 01:30 amWNW 15.0 25.1----30.11- 16.0 32.0 8.2---
2024-02-29 01:24 am W 15.0 22.0----30.11- 15.8 32.0 7.5---
2024-02-29 01:18 amWNW 17.1 25.1----30.11- 15.8 32.0 7.5---
2024-02-29 01:12 amWNW 19.0 27.0------------
2024-02-29 01:06 amWNW 15.9 24.1----30.10- 15.8 32.0 8.1---
2024-02-29 01:00 amWNW 15.0 21.0----30.10+0.04 15.6 32.0 7.5---
2024-02-29 12:48 amWNW 15.9 22.9----30.10- 15.8 32.0 8.8---
2024-02-29 12:42 amWNW 15.9 24.1----30.10- 15.8 32.0 9.5---
2024-02-29 12:36 amWNW 21.0 27.0----30.10- 15.8 32.0 7.7---
2024-02-29 12:30 am W 17.1 27.0----30.09- 15.8 32.0 7.5---
2024-02-29 12:18 amWNW 18.1 26.0----30.09- 15.8 31.8 7.9---
2024-02-29 12:12 amWNW 14.0 20.0----30.09- 15.8 32.0 8.1---
2024-02-29 12:06 amWNW 17.1 22.0----30.09- 15.6 32.0 7.9---
2024-02-29 12:00 am W 14.0 20.0----30.09+0.05 15.6 32.0 7.5---
2024-02-28 11:54 pm W 17.1 25.1----30.09- 15.4 32.0 6.3---